This demonstration page uses our WeatherBlox Daily Observations layout. Learn more.

Left ArrowRight Arrow

39.08367, -84.50855

Hourly Observations for May 27, 2020

Temp ( °F °C ) Dew Point ( °F °C ) Humidity (%) Winds ( mph kmh ) Pressure ( in mb ) Visibility ( mi km ) Precip ( " mm )
12:53 am 00:53 Mostly Cloudy 70 21.1 68 20 93 93 Calm 30 1016 10 16.0934 0 0
1:53 am 01:53 Cloudy 69 20.6 68 20 96 96 Calm 29.99 1016 10 16.0934 0 0
2:53 am 02:53 Mostly Cloudy 69 20.6 68 20 96 96 SSW 3 6 29.99 1016 10 16.0934 0 0
3:45 am 03:45 Cloudy with Light Thunderstorms 70 21.1 69 20.6 97 97 SSW 3 6 30 1016 10 16.0934 0.02 0.508
3:53 am 03:53 Cloudy with Light Thunderstorms 70 21.1 69 20.6 97 97 Calm 29.99 1016 10 16.0934 0.02 0.508
4:02 am 04:02 Cloudy 69 20.6 69 20.6 100 100 SSW 5 7 30 1016 10 16.0934 0.001 0.001
4:16 am 04:16 Mostly Cloudy with Nearby Thunderstorms 70 21.1 69 20.6 97 97 S 5 7 30 1016 9 14.48406 0.001 0.001
4:30 am 04:30 Mostly Cloudy with Light Rain 70 21.1 69 20.6 97 97 SSW 5 7 30 1016 10 16.0934 0.001 0.001
4:53 am 04:53 Mostly Cloudy with Light Rain 69 20.6 68 20 96 96 SW 5 7 29.99 1016 9 14.48406 0.001 0.001
5:53 am 05:53 Mostly Clear 69 20.6 68 20 96 96 SW 3 6 30 1016 8 12.87472 0.001 0.001
6:53 am 06:53 Mostly Cloudy with Mist and Fog 69 20.6 68 20 96 96 Calm 30.01 1016 6 9.65604 0.001 0.001
7:53 am 07:53 Mostly Cloudy with Mist and Fog 70 21.1 69 20.6 97 97 Calm 30.01 1016 6 9.65604 0 0
8:53 am 08:53 Sunny 73 22.8 69 20.6 87 87 Calm 30.02 1017 10 16.0934 0 0
9:53 am 09:53 Mostly Sunny 77 25 68 20 74 74 Calm 30.01 1016 10 16.0934 0 0
10:53 am 10:53 Sunny 78 25.6 67 19.4 69 69 SSE 3 6 30 1016 10 16.0934 0 0
11:53 am 11:53 Mostly Sunny 81 27.2 67 19.4 62 62 VRB 5 7 29.99 1016 10 16.0934 0 0
12:53 pm 12:53 Mostly Cloudy 80 26.7 64 17.8 58 58 S 6 9 29.98 1015 10 16.0934 0 0
1:53 pm 13:53 Mostly Cloudy 81 27.2 66 18.9 61 61 SE 7 11 29.97 1015 10 16.0934 0 0
2:53 pm 14:53 Cloudy 81 27.2 64 17.8 57 57 SE 8 13 29.96 1015 10 16.0934 0 0
3:53 pm 15:53 Mostly Cloudy 78 25.6 66 18.9 67 67 WSW 9 15 29.96 1015 10 16.0934 0 0
4:53 pm 16:53 Mostly Cloudy 79 26.1 67 19.4 67 67 W 7 11 29.96 1014 10 16.0934 0.001 0.001
5:53 pm 17:53 Cloudy 78 25.6 67 19.4 69 69 SW 3 6 29.96 1014 10 16.0934 0 0
6:53 pm 18:53 Mostly Cloudy 77 25 68 20 74 74 SE 3 6 29.95 1014 10 16.0934 0 0
7:53 pm 19:53 Mostly Cloudy 77 25 70 21.1 79 79 Calm 29.95 1014 10 16.0934 0 0
8:53 pm 20:53 Partly Cloudy 75 23.9 70 21.1 84 84 NE 3 6 29.94 1014 10 16.0934 0 0
9:53 pm 21:53 Mostly Clear 71 21.7 68 20 90 90 Calm 29.95 1014 10 16.0934 0 0
10:53 pm 22:53 Mostly Cloudy 70 21.1 68 20 93 93 Calm 29.96 1014 10 16.0934 0 0
11:53 pm 23:53 Mostly Clear 69 20.6 67 19.4 93 93 Calm 29.95 1014 10 16.0934 0 0

Powered by AerisWeather